Glens Falls, NY

8:46 AM EST on December 09, 2019 (GMT -0500)
Bennett Memorial

Weather History for KGFL - November, 2019

Change the Weather History Date:

Sunday, November 17, 2019

  Actual Average Record
Temperature  
Mean Temperature 23 °F 37 °F  
Max Temperature 36 °F 46 °F 67 °F (2006)
Min Temperature 9 °F 27 °F 5 °F (1997)
Degree Days  
Heating Degree Days 42 28  
Month to date heating degree days 562 438  
Since 1 July heating degree days 1253 1293  
Cooling Degree Days 0 0  
Month to date cooling degree days 0 0  
Year to date cooling degree days 416 352  
Moisture  
Dew Point 11 °F    
Average Humidity 62    
Maximum Humidity 92    
Minimum Humidity 32    
Precipitation  
Precipitation 0.00 in 0.11 in 1.11 in (1920)
Month to date precipitation 0.72 1.85  
Year to date precipitation 39.42 34.55  
Sea Level Pressure  
Sea Level Pressure 30.40 in    
Wind  
Wind Speed 2 mph (SSE)    
Max Wind Speed 9 mph    
Max Gust Speed 13 mph    
Visibility 10 miles    
Events      
T = Trace of Precipitation, MM = Missing Value Source: NWS Daily Summary

Daily Weather History Graph

Daily Weather History Graph

Search for Another Location

Airport or City:

Astronomy

Nov. 17, 2019 Rise Set
Actual Time 6:49 AM EST 4:28 PM EST
Civil Twilight 6:19 AM EST 4:59 PM EST
Nautical Twilight 5:44 AM EST 5:33 PM EST
Astronomical Twilight 5:10 AM EST 6:07 PM EST
Moon 8:59 PM EST (11/17) 11:35 AM EST (11/17)
Length of Visible Light 10h 40m
Length of Day
9h 38m
Waning Gibbous, 73% of the Moon is Illuminated
Nov 17
Waning Gibbous
Nov 19
Last Quarter
Nov 26
New
Dec 4
First Quarter
Dec 12
Full

Hourly Weather History & Observations

Time (EST) Temp. Windchill Dew Point Humidity Pressure Visibility Wind Dir Wind Speed Gust Speed Precip Events Conditions
12:53 AM 12.9 °F - 7.0 °F 77% 30.53 in 10.0 mi Calm Calm - N/A   Clear
1:53 AM 12.9 °F - 8.1 °F 81% 30.53 in 10.0 mi Calm Calm - N/A   Clear
3:53 AM 10.9 °F - 7.0 °F 84% 30.53 in 10.0 mi Calm Calm - N/A   Clear
4:53 AM 12.0 °F - 8.1 °F 84% 30.53 in 10.0 mi Calm Calm - N/A   Clear
5:53 AM 14.0 °F - 9.0 °F 80% 30.52 in 10.0 mi Calm Calm - N/A   Clear
6:53 AM 14.0 °F - 9.0 °F 80% 30.52 in 10.0 mi Calm Calm - N/A   Clear
7:53 AM 16.0 °F - 9.0 °F 74% 30.51 in 10.0 mi Calm Calm - N/A   Clear
8:53 AM 19.0 °F - 10.9 °F 71% 30.51 in 10.0 mi Calm Calm - N/A   Clear
9:53 AM 25.0 °F - 12.0 °F 58% 30.50 in 10.0 mi Calm Calm - N/A   Clear
10:53 AM 28.0 °F - 10.9 °F 49% 30.48 in 10.0 mi Calm Calm - N/A   Clear
11:53 AM 30.9 °F 25.2 °F 12.0 °F 46% 30.44 in 10.0 mi SSE 5.8 mph - N/A   Clear
12:53 PM 33.1 °F 28.7 °F 12.0 °F 42% 30.40 in 10.0 mi South 4.6 mph - N/A   Clear
1:53 PM 34.0 °F 28.0 °F 10.0 °F 37% 30.36 in 10.0 mi South 6.9 mph - N/A   Clear
2:53 PM 35.1 °F 32.2 °F 9.0 °F 34% 30.35 in 10.0 mi South 3.5 mph - N/A   Clear
3:53 PM 34.0 °F 31.0 °F 10.0 °F 37% 30.33 in 10.0 mi SSE 3.5 mph - N/A   Clear
4:53 PM 28.0 °F - 12.9 °F 53% 30.32 in 10.0 mi Calm Calm - N/A   Clear
5:53 PM 23.0 °F - 14.0 °F 68% 30.31 in 10.0 mi Calm Calm - N/A   Clear
6:53 PM 21.9 °F - 14.0 °F 72% 30.30 in 10.0 mi Calm Calm - N/A   Clear
7:53 PM 19.9 °F - 12.9 °F 74% 30.28 in 10.0 mi Calm Calm - N/A   Clear
8:53 PM 18.0 °F - 12.9 °F 81% 30.26 in 10.0 mi Calm Calm - N/A   Mostly Cloudy
9:53 PM 25.0 °F 19.3 °F 14.0 °F 63% 30.23 in 10.0 mi NW 4.6 mph - N/A   Mostly Cloudy
10:53 PM 28.9 °F 21.9 °F 19.9 °F 69% 30.19 in 10.0 mi NNE 6.9 mph - N/A   Overcast
11:53 PM 26.1 °F 21.9 °F 17.1 °F 69% 30.17 in 10.0 mi ENE 3.5 mph - N/A   Overcast